This demonstration page uses our WeatherBlox Daily Observations layout. Learn more.

Left ArrowRight Arrow

36.17497, -115.13722

Hourly Observations for October 23, 2016

Temp ( °F °C ) Dew Point ( °F °C ) Humidity (%) Winds ( mph kmh ) Pressure ( in mb ) Visibility ( mi km ) Precip ( " mm )
12:53 am 00:53 Clear 63 17.2 21 -6.1 20 20 NW 3 6 29.92 1013 10 16.0934 0 0
1:53 am 01:53 Clear 65 18.3 23 -5 20 20 Calm 29.92 1013 10 16.0934 0 0
2:53 am 02:53 Clear 62 16.7 25 -3.9 24 24 NW 6 9 29.93 1014 10 16.0934 0 0
3:53 am 03:53 Clear 62 16.7 24 -4.4 23 23 NW 7 11 29.94 1014 10 16.0934 0 0
4:53 am 04:53 Clear 64 17.8 22 -5.6 20 20 WNW 3 6 29.95 1014 10 16.0934 0 0
5:53 am 05:53 Clear 64 17.8 23 -5 21 21 NNW 3 6 29.97 1015 10 16.0934 0 0
6:53 am 06:53 Clear 63 17.2 25 -3.9 24 24 NW 5 7 29.99 1016 10 16.0934 0 0
7:53 am 07:53 Sunny 67 19.4 26 -3.3 21 21 NW 3 6 30.01 1016 10 16.0934 0 0
8:53 am 08:53 Sunny 69 20.6 29 -1.7 22 22 N 3 6 30.03 1017 10 16.0934 0 0
9:53 am 09:53 Sunny 73 22.8 28 -2.2 19 19 NW 3 6 30.05 1018 10 16.0934 0 0
10:53 am 10:53 Sunny 77 25 24 -4.4 14 14 VRB 3 6 30.03 1017 10 16.0934 0 0
11:53 am 11:53 Sunny 80 26.7 24 -4.4 13 13 VRB 5 7 30.04 1017 10 16.0934 0 0
12:53 pm 12:53 Sunny 82 27.8 24 -4.4 12 12 Calm 30.01 1016 10 16.0934 0 0
1:53 pm 13:53 Mostly Sunny 82 27.8 26 -3.3 13 13 ESE 5 7 29.99 1016 10 16.0934 0 0
2:53 pm 14:53 Mostly Cloudy 82 27.8 27 -2.8 13 13 SSE 8 13 30 1016 10 16.0934 0 0
3:53 pm 15:53 Mostly Sunny 83 28.3 29 -1.7 14 14 Calm 29.99 1016 10 16.0934 0 0
4:53 pm 16:53 Mostly Sunny 83 28.3 32 0 16 16 W 13 20 29.99 1016 10 16.0934 0 0
5:53 pm 17:53 Mostly Cloudy 79 26.1 37 2.8 22 22 W 21 33 30.02 1017 10 16.0934 0 0
6:53 pm 18:53 Cloudy 72 22.2 51 10.6 48 48 W 23 37 30.04 1017 10 16.0934 0 0
7:53 pm 19:53 Cloudy 71 21.7 54 12.2 55 55 W 10 17 30.08 1019 10 16.0934 0 0
8:53 pm 20:53 Cloudy 70 21.1 56 13.3 61 61 WNW 3 6 30.08 1019 8 12.87472 0.07 1.778
9:53 pm 21:53 Clear 69 20.6 59 15 70 70 W 5 7 30.07 1018 10 16.0934 0 0
10:53 pm 22:53 Clear 67 19.4 62 16.7 84 84 Calm 30.07 1018 10 16.0934 0 0
11:53 pm 23:53 Clear 69 20.6 56 13.3 63 63 WNW 8 13 30.06 1018 10 16.0934 0 0

Powered by AerisWeather